Home > Weather > Ostrava > Past weeks

Flag for Czech Republic Past Weather in Ostrava, Czech Republic — Yesterday and Last 2 Weeks

Now
81 °F

Passing clouds.


Feels Like: 81 °F
Forecast: 63 / 84 °F
Wind: 9 mph from Southwest

Location: Ostrava / Mosnov

Current Time: Aug 28, 2016 at 12:48:35 PM

Latest Report: Aug 28, 2016 at 12:00 PM


Visibility: 13 mi

Pressure: 30.07 "Hg

Humidity: 45%

Dew Point: 58 °F

Location of OstravaLocation

Past Weather in Ostrava — Graph

°F

Ostrava Temperature Yesterday

Maximum temperature yesterday: 83 °F (at 4:00 PM)
Minimum temperature yesterday: 52 °F (at 5:00 AM)
Average temperature yesterday: 69 °F

High & Low Weather Summary for the Past Weeks

 TemperatureHumidityPressure
High83 °F (Aug 27, 4:00 PM)98% (Aug 15, 4:00 AM)30.38 "Hg (Aug 15, 4:00 AM)
Low49 °F (Aug 18, 6:00 AM)39% (Aug 26, 4:00 PM)29.82 "Hg (Aug 18, 5:00 PM)
Average65 °F74%30.12 "Hg
* Reported Aug 13 11:00 AM — Aug 28 11:00 AM, Ostrava, Weather by CustomWeather, © 2016

Note: Actual official high and low records may vary slightly from our data, if they occured in-between our weather recording intervals... More about our weather records

Advertising

Ostrava Weather History for the Previous 24 Hours

Scroll right to see more
 ConditionsComfort  
Time TempWeatherWind HumidityBarometerVisibility
11:00 AM
Sun, Aug 28
79 °FPassing clouds.8 mph48%30.08 "Hg11 mi
10:00 AM74 °FSunny.N/A61%30.10 "Hg11 mi
9:00 AM67 °FSunny.N/A71%30.11 "Hg11 mi
8:00 AM63 °FSunny.N/A82%30.11 "Hg9 mi
7:00 AM58 °FSunny.1 mph91%30.12 "Hg6 mi
6:00 AM54 °FFog.2 mph94%30.12 "Hg2 mi
5:00 AM56 °FFog.1 mph94%30.13 "Hg3 mi
4:00 AM57 °FClear.N/A95%30.14 "Hg7 mi
3:00 AM58 °FClear.1 mph92%30.15 "Hg9 mi
2:00 AM60 °FClear.1 mph88%30.15 "Hg12 mi
1:00 AM62 °FClear.1 mph85%30.15 "Hg12 mi
12:00 AM65 °FClear.2 mph73%30.16 "Hg12 mi
11:00 PM
Sat, Aug 27
67 °FClear.3 mph76%30.15 "Hg12 mi
10:00 PM68 °FClear.5 mph67%30.14 "Hg12 mi
9:00 PM71 °FClear.3 mph60%30.14 "Hg12 mi
8:00 PM75 °FClear.3 mph53%30.12 "Hg22 mi
7:00 PM79 °FSunny.5 mph50%30.11 "Hg31 mi
6:00 PM81 °FSunny.5 mph47%30.11 "Hg31 mi
5:00 PM83 °FSunny.5 mph47%30.12 "Hg28 mi
4:00 PM83 °FSunny.6 mph44%30.13 "Hg28 mi
3:00 PM82 °FSunny.5 mph41%30.14 "Hg28 mi
2:00 PM82 °FSunny.6 mph44%30.15 "Hg28 mi
1:00 PM81 °FSunny.8 mph44%30.16 "Hg28 mi
12:00 PM80 °FSunny.8 mph45%30.17 "Hg28 mi
Weather by CustomWeather, © 2016

See weather overviewHow to use our weather pages